Location: Mahannah Oil Field
(37.4664°N, 96.6003°W)
Time: 14:49:39
(UTC+00:00)

A-11 Canister half - Visible Passes

Search period start: 25 January 2021 00:00
Search period end: 04 February 2021 00:00
Orbit: 1517 x 1683 km, 47.2° (Epoch: 24 January)

Date Brightness Start Highest point End Pass type
(mag) Time Alt. Az. Time Alt. Az. Time Alt. Az.
25 Jan 9.5 00:48:42 10° SSW 00:57:25 40° SE 01:02:59 21° ENE visible
25 Jan 9.0 02:52:21 10° WSW 03:01:13 73° WNW 03:01:13 73° WNW visible
25 Jan 11.2 04:58:54 10° WNW 04:59:27 12° WNW 04:59:27 12° WNW visible
25 Jan 10.8 09:27:12 15° SE 09:27:12 15° SE 09:28:27 10° SE visible
25 Jan 10.5 11:25:27 14° SW 11:25:27 14° SW 11:27:51 10° SSW visible
26 Jan 9.6 00:26:00 10° SSW 00:34:33 37° SE 00:41:42 14° ENE visible
26 Jan 8.8 02:29:23 10° WSW 02:38:57 79° NNW 02:39:56 72° NNE visible
26 Jan 10.8 04:35:53 10° W 04:38:09 19° WNW 04:38:09 19° WNW visible
26 Jan 10.7 11:04:22 12° SSW 11:04:22 12° SSW 11:05:34 10° SSW visible
27 Jan 9.7 00:03:18 10° SSW 00:11:42 35° SE 00:19:53 10° ENE visible
27 Jan 8.9 02:06:25 10° WSW 02:16:01 83° NNW 02:18:36 54° NE visible
27 Jan 10.4 04:12:51 10° W 04:16:49 27° WNW 04:16:49 27° WNW visible
28 Jan 8.9 01:43:28 10° WSW 01:53:06 86° NNW 01:57:13 40° NE visible
28 Jan 10.0 03:49:49 10° W 03:55:26 35° WNW 03:55:26 35° WNW visible
29 Jan 8.9 01:20:31 10° SW 01:30:11 90° NW 01:35:48 29° ENE visible
29 Jan 9.7 03:26:47 10° W 03:34:01 44° NW 03:34:01 44° NW visible
30 Jan 9.0 00:57:35 10° SW 01:07:16 87° SSE 01:14:20 20° ENE visible
30 Jan 9.4 03:03:44 10° W 03:12:33 50° NNW 03:12:33 50° NNW visible
30 Jan 11.2 05:10:17 10° WNW 05:10:46 12° WNW 05:10:46 12° WNW visible
31 Jan 9.0 00:34:39 10° SW 00:44:22 83° SE 00:52:51 14° ENE visible
31 Jan 9.3 02:40:42 10° W 02:49:55 51° NNW 02:51:04 49° N visible
31 Jan 10.9 04:47:18 10° WNW 04:49:16 18° WNW 04:49:16 18° WNW visible
01 Feb 9.1 00:11:44 10° SW 00:21:27 79° SE 00:30:52 10° ENE visible
01 Feb 9.4 02:17:39 10° W 02:26:56 53° NNW 02:29:32 43° NNE visible
01 Feb 10.5 04:24:20 10° WNW 04:27:44 24° NW 04:27:44 24° NW visible
02 Feb 9.4 01:54:37 10° W 02:03:57 54° NNW 02:07:59 34° NE visible
02 Feb 10.2 04:01:21 10° WNW 04:06:11 31° NW 04:06:11 31° NW visible
03 Feb 9.4 01:31:34 10° W 01:40:58 55° NNW 01:46:24 27° NE visible
03 Feb 9.9 03:38:21 10° WNW 03:44:37 39° NW 03:44:37 39° NW visible
